Time,TemperatureF,DewpointF,PressureIn,WindDirection,WindDirectionDegrees,WindSpeedMPH,WindSpeedGustMPH,Humidity,HourlyPrecipIn,Conditions,Clouds,dailyrainin,SoftwareType,DateUTC
2013-04-02 00:02:00,32.0,23.0,30.21,East,90,3.0,4.0,68,-99.99,,,-99.99,,2013-04-02 05:02:00,
2013-04-02 00:12:00,32.0,23.0,30.21,East,90,3.0,4.0,69,-99.99,,,-99.99,,2013-04-02 05:12:00,
2013-04-02 00:22:00,32.0,23.0,30.21,East,90,4.0,6.0,70,-99.99,,,-99.99,,2013-04-02 05:22:00,
2013-04-02 00:32:00,32.0,23.0,30.21,East,90,4.0,6.0,69,-99.99,,,-99.99,,2013-04-02 05:32:00,
2013-04-02 00:42:00,33.0,23.0,30.22,East,90,4.0,6.0,66,-99.99,,,-99.99,,2013-04-02 05:42:00,
2013-04-02 00:52:00,33.0,22.0,30.21,East,90,5.0,8.0,65,-99.99,,,-99.99,,2013-04-02 05:52:00,
2013-04-02 01:02:00,32.0,22.0,30.22,East,90,7.0,11.0,65,-99.99,,,-99.99,,2013-04-02 06:02:00,
2013-04-02 01:12:00,32.0,22.0,30.22,NNE,22,6.0,8.0,66,-99.99,,,-99.99,,2013-04-02 06:12:00,
2013-04-02 01:22:00,31.0,22.0,30.22,East,90,5.0,7.0,69,-99.99,,,-99.99,,2013-04-02 06:22:00,
2013-04-02 01:32:00,32.0,22.0,30.23,NNE,22,5.0,7.0,68,-99.99,,,-99.99,,2013-04-02 06:32:00,
2013-04-02 01:42:00,31.0,22.0,30.23,NNE,22,5.0,7.0,70,-99.99,,,-99.99,,2013-04-02 06:42:00,
2013-04-02 01:52:00,30.0,22.0,30.23,NNE,22,5.0,6.0,70,-99.99,,,-99.99,,2013-04-02 06:52:00,
2013-04-02 02:02:00,30.0,22.0,30.23,NNE,22,4.0,6.0,70,-99.99,,,-99.99,,2013-04-02 07:02:00,
2013-04-02 02:12:00,30.0,22.0,30.23,NNE,22,5.0,6.0,73,-99.99,,,-99.99,,2013-04-02 07:12:00,
2013-04-02 02:22:00,29.0,22.0,30.24,NNE,22,3.0,4.0,73,-99.99,,,-99.99,,2013-04-02 07:22:00,
2013-04-02 02:32:00,30.0,22.0,30.24,NNE,22,4.0,5.0,71,-99.99,,,-99.99,,2013-04-02 07:32:00,
2013-04-02 02:42:00,29.0,22.0,30.23,NNE,22,4.0,6.0,73,-99.99,,,-99.99,,2013-04-02 07:42:00,
2013-04-02 02:52:00,29.0,22.0,30.23,NNE,22,4.0,5.0,75,-99.99,,,-99.99,,2013-04-02 07:52:00,
2013-04-02 03:02:00,29.0,22.0,30.23,East,90,4.0,6.0,75,-99.99,,,-99.99,,2013-04-02 08:02:00,
2013-04-02 03:13:00,29.0,22.0,30.24,East,90,5.0,7.0,76,-99.99,,,-99.99,,2013-04-02 08:13:00,
2013-04-02 03:22:00,29.0,22.0,30.23,NNE,22,5.0,7.0,76,-99.99,,,-99.99,,2013-04-02 08:22:00,
2013-04-02 03:32:00,29.0,22.0,30.23,NNE,22,5.0,6.0,76,-99.99,,,-99.99,,2013-04-02 08:32:00,
2013-04-02 03:42:00,29.0,22.0,30.23,NNE,22,5.0,6.0,76,-99.99,,,-99.99,,2013-04-02 08:42:00,
2013-04-02 03:52:00,29.0,22.0,30.23,NNE,22,4.0,6.0,76,-99.99,,,-99.99,,2013-04-02 08:52:00,
2013-04-02 04:02:00,28.0,22.0,30.23,NNE,22,3.0,4.0,76,-99.99,,,-99.99,,2013-04-02 09:02:00,
2013-04-02 04:12:00,28.0,21.0,30.23,NNE,22,3.0,4.0,76,-99.99,,,-99.99,,2013-04-02 09:12:00,
2013-04-02 04:22:00,28.0,22.0,30.23,NNE,22,4.0,5.0,78,-99.99,,,-99.99,,2013-04-02 09:22:00,
2013-04-02 04:32:00,28.0,22.0,30.24,NNE,22,3.0,4.0,79,-99.99,,,-99.99,,2013-04-02 09:32:00,
2013-04-02 04:43:00,28.0,22.0,30.24,NNE,22,2.0,3.0,79,-99.99,,,-99.99,,2013-04-02 09:43:00,
2013-04-02 04:52:00,27.0,22.0,30.24,NNE,22,3.0,4.0,80,-99.99,,,-99.99,,2013-04-02 09:52:00,
2013-04-02 05:03:00,27.0,22.0,30.24,NNE,22,3.0,4.0,82,-99.99,,,-99.99,,2013-04-02 10:03:00,
2013-04-02 05:13:00,27.0,22.0,30.24,NNE,22,2.0,3.0,81,-99.99,,,-99.99,,2013-04-02 10:13:00,
2013-04-02 05:23:00,27.0,21.0,30.25,East,90,0.0,-999.0,80,-99.99,,,-99.99,,2013-04-02 10:23:00,
2013-04-02 05:33:00,26.0,22.0,30.24,East,90,0.0,-999.0,82,-99.99,,,-99.99,,2013-04-02 10:33:00,
2013-04-02 05:42:00,27.0,22.0,30.25,East,90,0.0,-999.0,82,-99.99,,,-99.99,,2013-04-02 10:42:00,
2013-04-02 05:52:00,27.0,22.0,30.25,East,90,0.0,-999.0,80,-99.99,,,-99.99,,2013-04-02 10:52:00,
2013-04-02 06:02:00,27.0,22.0,30.25,East,90,0.0,-999.0,82,-99.99,,,-99.99,,2013-04-02 11:02:00,
2013-04-02 06:12:00,26.0,22.0,30.26,WSW,247,0.0,-999.0,82,-99.99,,,-99.99,,2013-04-02 11:12:00,
2013-04-02 06:22:00,25.0,22.0,30.27,SW,225,2.0,2.0,86,-99.99,,,-99.99,,2013-04-02 11:22:00,
2013-04-02 06:32:00,26.0,22.0,30.26,SW,225,0.0,-999.0,87,-99.99,,,-99.99,,2013-04-02 11:32:00,
2013-04-02 06:42:00,26.0,23.0,30.27,SW,225,0.0,-999.0,88,-99.99,,,-99.99,,2013-04-02 11:42:00,
2013-04-02 06:52:00,25.0,22.0,30.27,SW,225,2.0,3.0,88,-99.99,,,-99.99,,2013-04-02 11:52:00,
2013-04-02 07:02:00,25.0,22.0,30.27,SW,225,0.0,-999.0,88,-99.99,,,-99.99,,2013-04-02 12:02:00,
2013-04-02 07:12:00,26.0,22.0,30.27,SW,225,0.0,-999.0,86,-99.99,,,-99.99,,2013-04-02 12:12:00,
2013-04-02 07:22:00,27.0,22.0,30.29,SW,225,0.0,-999.0,84,-99.99,,,-99.99,,2013-04-02 12:22:00,
2013-04-02 07:32:00,26.0,23.0,30.29,SW,225,1.0,2.0,87,-99.99,,,-99.99,,2013-04-02 12:32:00,
2013-04-02 07:42:00,28.0,24.0,30.30,SW,225,0.0,-999.0,87,-99.99,,,-99.99,,2013-04-02 12:42:00,
2013-04-02 07:52:00,29.0,25.0,30.30,NW,315,0.0,-999.0,83,-99.99,,,-99.99,,2013-04-02 12:52:00,
2013-04-02 08:02:00,30.0,25.0,30.30,NNW,337,2.0,3.0,83,-99.99,,,-99.99,,2013-04-02 13:02:00,
2013-04-02 08:12:00,32.0,24.0,30.30,NNE,22,2.0,3.0,72,-99.99,,,-99.99,,2013-04-02 13:12:00,
2013-04-02 08:22:00,32.0,23.0,30.30,NNE,22,4.0,6.0,71,-99.99,,,-99.99,,2013-04-02 13:22:00,
2013-04-02 08:32:00,32.0,24.0,30.30,NNE,22,4.0,5.0,71,-99.99,,,-99.99,,2013-04-02 13:32:00,
2013-04-02 08:42:00,33.0,22.0,30.30,NE,45,2.0,4.0,64,-99.99,,,-99.99,,2013-04-02 13:42:00,
2013-04-02 08:52:00,35.0,24.0,30.30,NE,45,0.0,-999.0,62,-99.99,,,-99.99,,2013-04-02 13:52:00,
2013-04-02 09:02:00,33.0,22.0,30.30,ENE,67,3.0,4.0,63,-99.99,,,-99.99,,2013-04-02 14:02:00,
2013-04-02 09:12:00,33.0,21.0,30.30,ENE,67,6.0,10.0,60,-99.99,,,-99.99,,2013-04-02 14:12:00,
2013-04-02 09:22:00,34.0,22.0,30.30,North,0,6.0,9.0,61,-99.99,,,-99.99,,2013-04-02 14:22:00,
2013-04-02 09:32:00,33.0,22.0,30.29,ENE,67,7.0,10.0,64,-99.99,,,-99.99,,2013-04-02 14:32:00,
2013-04-02 09:42:00,33.0,19.0,30.29,North,0,5.0,8.0,55,-99.99,,,-99.99,,2013-04-02 14:42:00,
2013-04-02 09:52:00,34.0,22.0,30.29,ENE,67,6.0,10.0,62,-99.99,,,-99.99,,2013-04-02 14:52:00,
2013-04-02 10:02:00,34.0,21.0,30.29,North,0,4.0,8.0,58,-99.99,,,-99.99,,2013-04-02 15:02:00,
2013-04-02 10:11:00,36.0,21.0,30.29,North,0,6.0,11.0,55,-99.99,,,-99.99,,2013-04-02 15:11:00,
2013-04-02 10:33:00,36.0,20.0,30.30,NE,45,4.0,7.0,52,-99.99,,,-99.99,,2013-04-02 15:33:00,
2013-04-02 10:42:00,37.0,22.0,30.30,North,0,3.0,7.0,55,-99.99,,,-99.99,,2013-04-02 15:42:00,
2013-04-02 10:54:00,37.0,20.0,30.30,NNE,22,3.0,8.0,52,-99.99,,,-99.99,,2013-04-02 15:54:00,
2013-04-02 11:03:00,37.0,21.0,30.30,NNE,22,5.0,9.0,52,-99.99,,,-99.99,,2013-04-02 16:03:00,
2013-04-02 11:13:00,37.0,22.0,30.29,ESE,112,4.0,13.0,53,-99.99,,,-99.99,,2013-04-02 16:13:00,
2013-04-02 11:24:00,39.0,19.0,30.30,East,90,2.0,4.0,45,-99.99,,,-99.99,,2013-04-02 16:24:00,
2013-04-02 11:34:00,39.0,20.0,30.29,East,90,3.0,8.0,46,-99.99,,,-99.99,,2013-04-02 16:34:00,
2013-04-02 11:43:00,39.0,22.0,30.29,ESE,112,4.0,8.0,50,-99.99,,,-99.99,,2013-04-02 16:43:00,
2013-04-02 11:52:00,39.0,19.0,30.29,North,0,7.0,11.0,44,-99.99,,,-99.99,,2013-04-02 16:52:00,
2013-04-02 12:04:00,40.0,20.0,30.28,NE,45,3.0,7.0,46,-99.99,,,-99.99,,2013-04-02 17:04:00,
2013-04-02 12:13:00,41.0,19.0,30.29,West,270,3.0,5.0,41,-99.99,,,-99.99,,2013-04-02 17:13:00,
2013-04-02 12:24:00,42.0,23.0,30.28,SSE,157,2.0,4.0,46,-99.99,,,-99.99,,2013-04-02 17:24:00,
2013-04-02 12:34:00,41.0,21.0,30.28,North,0,4.0,7.0,44,-99.99,,,-99.99,,2013-04-02 17:34:00,
2013-04-02 12:43:00,41.0,16.0,30.28,ENE,67,3.0,6.0,37,-99.99,,,-99.99,,2013-04-02 17:43:00,
2013-04-02 12:53:00,44.0,21.0,30.28,East,90,0.0,-999.0,40,-99.99,,,-99.99,,2013-04-02 17:53:00,
2013-04-02 13:03:00,43.0,20.0,30.28,WSW,247,1.0,4.0,39,-99.99,,,-99.99,,2013-04-02 18:03:00,
2013-04-02 13:12:00,42.0,19.0,30.28,WNW,292,3.0,6.0,38,-99.99,,,-99.99,,2013-04-02 18:12:00,
2013-04-02 13:23:00,44.0,20.0,30.28,NW,315,2.0,9.0,37,-99.99,,,-99.99,,2013-04-02 18:23:00,
2013-04-02 13:33:00,45.0,19.0,30.27,SSE,157,2.0,6.0,34,-99.99,,,-99.99,,2013-04-02 18:33:00,
2013-04-02 13:42:00,44.0,19.0,30.27,WNW,292,2.0,7.0,36,-99.99,,,-99.99,,2013-04-02 18:42:00,
2013-04-02 13:53:00,43.0,16.0,30.26,South,180,4.0,9.0,32,-99.99,,,-99.99,,2013-04-02 18:53:00,
2013-04-02 14:03:00,44.0,16.0,30.26,NE,45,3.0,6.0,33,-99.99,,,-99.99,,2013-04-02 19:03:00,
2013-04-02 14:13:00,44.0,18.0,30.26,NNW,337,7.0,11.0,35,-99.99,,,-99.99,,2013-04-02 19:13:00,
2013-04-02 14:22:00,46.0,17.0,30.26,SSE,157,3.0,8.0,32,-99.99,,,-99.99,,2013-04-02 19:22:00,
2013-04-02 14:33:00,45.0,16.0,30.26,NE,45,6.0,11.0,31,-99.99,,,-99.99,,2013-04-02 19:33:00,
2013-04-02 14:45:00,45.0,15.0,30.26,SSW,202,4.0,9.0,29,-99.99,,,-99.99,,2013-04-02 19:45:00,
2013-04-02 14:53:00,45.0,20.0,30.26,NNE,22,7.0,14.0,36,-99.99,,,-99.99,,2013-04-02 19:53:00,
2013-04-02 15:03:00,45.0,18.0,30.26,NNE,22,6.0,11.0,33,-99.99,,,-99.99,,2013-04-02 20:03:00,
2013-04-02 15:13:00,45.0,20.0,30.25,WNW,292,2.0,7.0,36,-99.99,,,-99.99,,2013-04-02 20:13:00,
2013-04-02 15:22:00,47.0,18.0,30.25,East,90,7.0,12.0,32,-99.99,,,-99.99,,2013-04-02 20:22:00,
2013-04-02 15:33:00,46.0,21.0,30.24,NNW,337,7.0,11.0,37,-99.99,,,-99.99,,2013-04-02 20:33:00,
2013-04-02 15:43:00,45.0,19.0,30.24,NW,315,6.0,13.0,35,-99.99,,,-99.99,,2013-04-02 20:43:00,
2013-04-02 15:53:00,45.0,20.0,30.24,East,90,5.0,11.0,37,-99.99,,,-99.99,,2013-04-02 20:53:00,
2013-04-02 16:03:00,46.0,21.0,30.24,East,90,7.0,12.0,37,-99.99,,,-99.99,,2013-04-02 21:03:00,
2013-04-02 16:13:00,45.0,19.0,30.24,East,90,7.0,11.0,35,-99.99,,,-99.99,,2013-04-02 21:13:00,
2013-04-02 16:23:00,46.0,19.0,30.23,NNE,22,4.0,7.0,34,-99.99,,,-99.99,,2013-04-02 21:23:00,
2013-04-02 16:34:00,45.0,20.0,30.23,East,90,7.0,12.0,37,-99.99,,,-99.99,,2013-04-02 21:34:00,
2013-04-02 16:43:00,46.0,20.0,30.23,NNE,22,8.0,12.0,35,-99.99,,,-99.99,,2013-04-02 21:43:00,
2013-04-02 16:54:00,46.0,21.0,30.23,West,270,5.0,11.0,37,-99.99,,,-99.99,,2013-04-02 21:54:00,
2013-04-02 17:04:00,46.0,23.0,30.23,NNW,337,6.0,10.0,39,-99.99,,,-99.99,,2013-04-02 22:04:00,
2013-04-02 17:13:00,46.0,22.0,30.23,NNE,22,6.0,10.0,38,-99.99,,,-99.99,,2013-04-02 22:13:00,
2013-04-02 17:23:00,45.0,19.0,30.23,NE,45,5.0,9.0,35,-99.99,,,-99.99,,2013-04-02 22:23:00,
2013-04-02 17:33:00,46.0,23.0,30.23,NNE,22,7.0,11.0,41,-99.99,,,-99.99,,2013-04-02 22:33:00,
2013-04-02 17:43:00,47.0,22.0,30.23,NNE,22,1.0,4.0,38,-99.99,,,-99.99,,2013-04-02 22:43:00,
2013-04-02 17:53:00,45.0,25.0,30.23,East,90,8.0,11.0,44,-99.99,,,-99.99,,2013-04-02 22:53:00,
2013-04-02 18:02:00,46.0,23.0,30.23,East,90,5.0,7.0,41,-99.99,,,-99.99,,2013-04-02 23:02:00,
2013-04-02 18:12:00,45.0,23.0,30.23,NE,45,4.0,7.0,40,-99.99,,,-99.99,,2013-04-02 23:12:00,
2013-04-02 18:23:00,46.0,21.0,30.23,NNE,22,4.0,7.0,37,-99.99,,,-99.99,,2013-04-02 23:23:00,
2013-04-02 18:33:00,45.0,19.0,30.23,NE,45,5.0,8.0,35,-99.99,,,-99.99,,2013-04-02 23:33:00,
2013-04-02 18:42:00,46.0,24.0,30.23,NE,45,1.0,3.0,42,-99.99,,,-99.99,,2013-04-02 23:42:00,
2013-04-02 18:52:00,44.0,25.0,30.23,NE,45,3.0,6.0,45,-99.99,,,-99.99,,2013-04-02 23:52:00,
2013-04-02 19:03:00,43.0,27.0,30.23,ENE,67,5.0,7.0,53,-99.99,,,-99.99,,2013-04-03 00:03:00,
2013-04-02 19:13:00,43.0,25.0,30.23,NE,45,4.0,7.0,50,-99.99,,,-99.99,,2013-04-03 00:13:00,
2013-04-02 19:23:00,42.0,26.0,30.24,NE,45,2.0,3.0,52,-99.99,,,-99.99,,2013-04-03 00:23:00,
2013-04-02 19:33:00,41.0,25.0,30.23,NE,45,4.0,6.0,51,-99.99,,,-99.99,,2013-04-03 00:33:00,
2013-04-02 19:53:00,40.0,25.0,30.23,NE,45,4.0,4.0,54,-99.99,,,-99.99,,2013-04-03 00:53:00,
2013-04-02 20:03:00,40.0,25.0,30.23,ENE,67,2.0,3.0,56,-99.99,,,-99.99,,2013-04-03 01:03:00,
2013-04-02 20:12:00,41.0,23.0,30.23,ENE,67,3.0,3.0,48,-99.99,,,-99.99,,2013-04-03 01:12:00,
2013-04-02 20:22:00,42.0,19.0,30.23,North,0,3.0,4.0,40,-99.99,,,-99.99,,2013-04-03 01:22:00,
2013-04-02 20:33:00,41.0,22.0,30.23,North,0,3.0,3.0,46,-99.99,,,-99.99,,2013-04-03 01:33:00,
2013-04-02 20:42:00,41.0,21.0,30.24,North,0,3.0,3.0,45,-99.99,,,-99.99,,2013-04-03 01:42:00,
2013-04-02 20:52:00,42.0,20.0,30.24,North,0,2.0,3.0,42,-99.99,,,-99.99,,2013-04-03 01:52:00,
2013-04-02 21:03:00,42.0,19.0,30.24,North,0,2.0,2.0,40,-99.99,,,-99.99,,2013-04-03 02:03:00,
2013-04-02 21:13:00,41.0,20.0,30.24,North,0,2.0,2.0,44,-99.99,,,-99.99,,2013-04-03 02:13:00,
2013-04-02 21:23:00,41.0,23.0,30.25,North,0,1.0,2.0,50,-99.99,,,-99.99,,2013-04-03 02:23:00,
2013-04-02 21:33:00,41.0,22.0,30.25,North,0,0.0,-999.0,48,-99.99,,,-99.99,,2013-04-03 02:33:00,
2013-04-02 21:43:00,40.0,22.0,30.25,North,0,0.0,-999.0,48,-99.99,,,-99.99,,2013-04-03 02:43:00,
2013-04-02 21:52:00,40.0,23.0,30.26,North,0,0.0,-999.0,50,-99.99,,,-99.99,,2013-04-03 02:52:00,
2013-04-02 22:04:00,40.0,20.0,30.26,North,0,0.0,-999.0,45,-99.99,,,-99.99,,2013-04-03 03:04:00,
2013-04-02 22:13:00,39.0,24.0,30.25,ENE,67,2.0,2.0,53,-99.99,,,-99.99,,2013-04-03 03:13:00,
2013-04-02 22:22:00,38.0,25.0,30.25,NNE,22,2.0,3.0,59,-99.99,,,-99.99,,2013-04-03 03:22:00,
2013-04-02 22:35:00,38.0,23.0,30.26,NNE,22,2.0,3.0,56,-99.99,,,-99.99,,2013-04-03 03:35:00,
2013-04-02 22:43:00,38.0,20.0,30.26,NNE,22,2.0,3.0,49,-99.99,,,-99.99,,2013-04-03 03:43:00,
2013-04-02 22:53:00,38.0,20.0,30.25,NE,45,2.0,3.0,49,-99.99,,,-99.99,,2013-04-03 03:53:00,
2013-04-02 23:03:00,37.0,22.0,30.25,NE,45,2.0,3.0,53,-99.99,,,-99.99,,2013-04-03 04:03:00,
2013-04-02 23:12:00,36.0,24.0,30.25,NE,45,0.0,-999.0,61,-99.99,,,-99.99,,2013-04-03 04:12:00,
2013-04-02 23:23:00,35.0,23.0,30.26,NE,45,0.0,-999.0,60,-99.99,,,-99.99,,2013-04-03 04:23:00,
2013-04-02 23:33:00,35.0,24.0,30.26,NE,45,0.0,-999.0,64,-99.99,,,-99.99,,2013-04-03 04:33:00,
2013-04-02 23:42:00,35.0,24.0,30.26,NE,45,1.0,2.0,63,-99.99,,,-99.99,,2013-04-03 04:42:00,
2013-04-02 23:53:00,35.0,24.0,30.25,NE,45,3.0,3.0,63,-99.99,,,-99.99,,2013-04-03 04:53:00,